Regional Weather Roundup
Issued by NWS

Home | Current Version | Previous Version | Graphics & Text | Print | Product List | Glossary On
Versions: 1 2 3 4 5 6 7 8 9 10 11 12 13 14 15 16 17 18 19 20 21 22 23 24 25 26 27 28 29 30 31 32 33 34 35 36 37 38 39 40 41 42 43 44 45 46 47 48 49 50
000
ASUS43 KLSX 031307
RWRMO

WEATHER SUMMARY FOR MISSOURI
NATIONAL WEATHER SERVICE SPRINGFIELD MO
800 AM CDT FRI JUL 03 2015

NOTE: "FAIR" INDICATES FEW OR NO CLOUDS BELOW 12,000 FEET WITH NO
       SIGNIFICANT WEATHER AND/OR OBSTRUCTIONS TO VISIBILITY.
       CURRENT SKY AND/OR WEATHER CONDITIONS ARE NOT AVAILABLE FOR
       CHILLICOTHE AND FARMINGTON.

MOZ001>031-035>038-043-044-053-054-031400-
...NORTHERN AND WESTERN MISSOURI...

CITY           SKY/WX    TMP DP  RH WIND       PRES   REMARKS
KANSAS CTY INT CLOUDY    65  62  90 NE9       29.95S
KANSAS C DTWN  CLOUDY    68  63  84 NE8       29.94S
LEE`S SUMMIT   CLOUDY    67  62  84 NE8       29.95S
ST JOSEPH      CLOUDY    66  59  78 NE5       29.97R
CHILLICOTHE      N/A     66  61  84 NE5       29.97S
KIRKSVILLE     SUNNY     65  60  84 NE6       29.98S

$$
MOZ066>068-077>081-088>096-101>105-031400-
...SOUTHWEST MISSOURI...

CITY           SKY/WX    TMP DP  RH WIND       PRES   REMARKS
SPRINGFIELD    CLOUDY    72  70  93 S6        29.91S FOG
JOPLIN         CLOUDY    71  69  93 SW7       29.92S FOG

$$
MOZ032>034-039>042-045>050-055>058-069>072-031400-
...CENTRAL MISSOURI...

CITY           SKY/WX    TMP DP  RH WIND       PRES   REMARKS
COLUMBIA       CLOUDY    67  61  81 CALM      29.94S
JEFFERSON CITY PTSUNNY   68  62  81 CALM      29.93S
ROLLA          SUNNY     69  63  81 N3        29.92S
SEDALIA        MOSUNNY   70  63  78 NE6       29.94S
WHITEMAN AFB   PTSUNNY   67  63  85 E6        29.92S
WARRENSBURG    PTSUNNY   66  63  88 CALM      29.93R
OSAGE BEACH    PTSUNNY   68  63  83 NE6       29.92F

$$
MOZ051-052-059>065-031400-
...EAST CENTRAL MISSOURI...

CITY           SKY/WX    TMP DP  RH WIND       PRES   REMARKS
ST LOUIS INTL  PTSUNNY   70  62  76 N3        29.92R
SPIRIT OF STL  MOSUNNY   69  64  84 NE5       29.91S
ST CHARLES     CLOUDY    67  63  87 N5        29.91S

$$
MOZ072>076-082>087-097>100-106>115-031400-
...SOUTH CENTRAL AND SOUTHEAST MISSOURI...

CITY           SKY/WX    TMP DP  RH WIND       PRES   REMARKS
CAPE GIRARDEAU PTSUNNY   70  67  90 W3        29.88R
FARMINGTON     CLOUDY    66  63  88 N7        29.94F
POPLAR BLUFF   CLOUDY    72  69  90 NE5       29.88S
WEST PLAINS    PTSUNNY   71  67  87 N5        29.93R FOG

$$


USA.gov is the U.S. government's official web portal to all federal, state and local government web resources and services.